Weather History for KLGD - January, 2013

Change the Weather History Date:

Friday, January 4, 2013

  Actual Average Record
Temperature  
Mean Temperature 24 °F -  
Max Temperature 32 °F 36 °F 51 °F (2012)
Min Temperature 17 °F 26 °F -6 °F (1991)
Degree Days  
Heating Degree Days 40    
Moisture  
Dew Point 8 °F    
Average Humidity 46    
Maximum Humidity 58    
Minimum Humidity 38    
Precipitation  
Precipitation 0.00 in - - ()
Sea Level Pressure  
Sea Level Pressure 30.35 in    
Wind  
Wind Speed 19 mph (SSE)    
Max Wind Speed 26 mph    
Max Gust Speed 38 mph    
Visibility 10 miles    
Events      
Averages and records for this station are not official NWS values.
T = Trace of Precipitation, MM = Missing Value Source: NWS Daily Summary

Daily Weather History Graph

Daily Weather History Graph

Search for Another Location

Airport or City:

Trip Planner

Search our weather history database for the weather conditions in past years. The results will help you decide how hot, cold, wet, or windy it might be!

Date:

Astronomy

Jan. 04, 2013 Rise Set
Actual Time 7:31 AM PST 4:23 PM PST
Civil Twilight 6:57 AM PST 4:57 PM PST
Nautical Twilight 6:20 AM PST 5:34 PM PST
Astronomical Twilight 5:44 AM PST 6:10 PM PST
Moon No Moon Rise 10:54 AM PST (1/4)
Length of Visible Light 9h 59m
Length of Day
8h 52m
Waning Gibbous, 54% of the Moon is Illuminated
Jan 4
Waning Gibbous
Jan 4
Last Quarter
Jan 11
New
Jan 18
First Quarter
Jan 26
Full

Hourly Weather History & Observations

Time (PST) Temp. Windchill Dew Point Humidity Pressure Visibility Wind Dir Wind Speed Gust Speed Precip Events Conditions
12:15 AM 24.8 °F 9.6 °F 6.8 °F 46% 30.35 in 10.0 mi South 23.0 mph 33.4 mph N/A   Clear
12:35 AM 23.0 °F 6.3 °F 5.0 °F 46% 30.35 in 10.0 mi South 26.5 mph 38.0 mph N/A   Clear
12:55 AM 21.2 °F 5.2 °F 6.8 °F 54% 30.35 in 10.0 mi South 21.9 mph 32.2 mph N/A   Scattered Clouds
1:15 AM 23.0 °F 7.6 °F 6.8 °F 50% 30.35 in 10.0 mi South 21.9 mph 31.1 mph N/A   Overcast
1:35 AM 24.8 °F 9.6 °F 6.8 °F 46% 30.36 in 10.0 mi South 23.0 mph 34.5 mph N/A   Overcast
1:55 AM 24.8 °F 9.3 °F 6.8 °F 46% 30.36 in 10.0 mi South 24.2 mph 33.4 mph N/A   Overcast
2:15 AM 24.8 °F 10.3 °F 6.8 °F 46% 30.37 in 10.0 mi South 20.7 mph 32.2 mph N/A   Overcast
2:55 AM 24.8 °F 10.7 °F 6.8 °F 46% 30.37 in 10.0 mi South 19.6 mph 27.6 mph N/A   Overcast
3:35 AM 24.8 °F 9.6 °F 6.8 °F 46% 30.37 in 10.0 mi South 23.0 mph 34.5 mph N/A   Overcast
3:55 AM 24.8 °F 9.0 °F 6.8 °F 46% 30.36 in 10.0 mi South 25.3 mph 32.2 mph N/A   Overcast
4:15 AM 24.8 °F 9.0 °F 6.8 °F 46% 30.36 in 10.0 mi South 25.3 mph 31.1 mph N/A   Overcast
4:35 AM 24.8 °F 9.6 °F 6.8 °F 46% 30.37 in 10.0 mi South 23.0 mph 28.8 mph N/A   Overcast
5:15 AM 24.8 °F 10.7 °F 6.8 °F 46% 30.37 in 10.0 mi South 19.6 mph 27.6 mph N/A   Overcast
5:35 AM 24.8 °F 14.0 °F 6.8 °F 46% 30.37 in 10.0 mi SSE 11.5 mph 23.0 mph N/A   Overcast
5:55 AM 24.8 °F 10.3 °F 6.8 °F 46% 30.36 in 10.0 mi South 20.7 mph 31.1 mph N/A   Overcast
6:15 AM 24.8 °F 10.7 °F 6.8 °F 46% 30.37 in 10.0 mi South 19.6 mph 25.3 mph N/A   Overcast
6:35 AM 24.8 °F 10.0 °F 6.8 °F 46% 30.37 in 10.0 mi South 21.9 mph 29.9 mph N/A   Overcast
6:55 AM 24.8 °F 11.9 °F 6.8 °F 46% 30.38 in 10.0 mi South 16.1 mph 26.5 mph N/A   Overcast
7:15 AM 23.0 °F 9.2 °F 6.8 °F 50% 30.38 in 10.0 mi South 17.3 mph 26.5 mph N/A   Overcast
7:35 AM 24.8 °F 14.0 °F 6.8 °F 46% 30.38 in 10.0 mi South 11.5 mph - N/A   Overcast
7:55 AM 24.8 °F 11.5 °F 6.8 °F 46% 30.37 in 10.0 mi South 17.3 mph 29.9 mph N/A   Overcast
8:15 AM 24.8 °F 11.9 °F 6.8 °F 46% 30.38 in 10.0 mi South 16.1 mph 25.3 mph N/A   Overcast
8:35 AM 24.8 °F 11.1 °F 6.8 °F 46% 30.38 in 10.0 mi South 18.4 mph 25.3 mph N/A   Overcast
8:55 AM 26.6 °F 13.1 °F 8.6 °F 47% 30.39 in 10.0 mi South 19.6 mph 25.3 mph N/A   Overcast
9:15 AM 26.6 °F 12.7 °F 6.8 °F 43% 30.39 in 10.0 mi South 20.7 mph 28.8 mph N/A   Overcast
9:35 AM 26.6 °F 13.1 °F 8.6 °F 47% 30.40 in 10.0 mi South 19.6 mph 25.3 mph N/A   Overcast
9:55 AM 26.6 °F 11.7 °F 6.8 °F 43% 30.39 in 10.0 mi South 24.2 mph 34.5 mph N/A   Overcast
10:15 AM 26.6 °F 12.0 °F 8.6 °F 47% 30.40 in 10.0 mi South 23.0 mph 31.1 mph N/A   Overcast
10:35 AM 26.6 °F 12.0 °F 8.6 °F 47% 30.39 in 10.0 mi South 23.0 mph 29.9 mph N/A   Overcast
10:55 AM 26.6 °F 11.7 °F 8.6 °F 47% 30.38 in 10.0 mi South 24.2 mph 32.2 mph N/A   Overcast
11:15 AM 28.4 °F 15.4 °F 8.6 °F 43% 30.38 in 10.0 mi South 19.6 mph - N/A   Overcast
11:35 AM 30.2 °F 18.5 °F 10.4 °F 44% 30.37 in 10.0 mi South 17.3 mph 28.8 mph N/A   Overcast
11:55 AM 30.2 °F 18.1 °F 8.6 °F 40% 30.37 in 10.0 mi South 18.4 mph - N/A   Overcast
12:15 PM 32.0 °F 22.1 °F 10.4 °F 41% 30.36 in 10.0 mi South 13.8 mph - N/A   Overcast
12:35 PM 30.2 °F 18.9 °F 8.6 °F 40% 30.35 in 10.0 mi South 16.1 mph - N/A   Overcast
12:55 PM 30.2 °F 20.2 °F 8.6 °F 40% 30.35 in 10.0 mi South 12.7 mph 20.7 mph N/A   Overcast
1:15 PM 30.2 °F 19.8 °F 8.6 °F 40% 30.35 in 10.0 mi South 13.8 mph 24.2 mph N/A   Overcast
1:35 PM 30.2 °F 19.8 °F 10.4 °F 44% 30.34 in 10.0 mi South 13.8 mph 17.3 mph N/A   Overcast
1:55 PM 32.0 °F 20.8 °F 8.6 °F 38% 30.34 in 10.0 mi South 17.3 mph 20.7 mph N/A   Overcast
2:15 PM 30.2 °F 21.9 °F 8.6 °F 40% 30.34 in 10.0 mi SSE 9.2 mph 19.6 mph N/A   Overcast
2:35 PM 32.0 °F 23.6 °F 8.6 °F 38% 30.34 in 10.0 mi South 10.4 mph - N/A   Overcast
2:55 PM 30.2 °F 20.8 °F 8.6 °F 40% 30.34 in 10.0 mi SSE 11.5 mph 19.6 mph N/A   Overcast
3:15 PM 30.2 °F 19.3 °F 8.6 °F 40% 30.33 in 10.0 mi SSE 15.0 mph 25.3 mph N/A   Overcast
3:35 PM 30.2 °F 19.3 °F 8.6 °F 40% 30.34 in 10.0 mi South 15.0 mph 20.7 mph N/A   Scattered Clouds
3:55 PM 28.4 °F 17.5 °F 6.8 °F 40% 30.34 in 10.0 mi South 13.8 mph 18.4 mph N/A   Clear
4:15 PM 28.4 °F 15.1 °F 8.6 °F 43% 30.33 in 10.0 mi South 20.7 mph 24.2 mph N/A   Clear
4:35 PM 26.6 °F 13.8 °F 8.6 °F 47% 30.34 in 10.0 mi SSE 17.3 mph 25.3 mph N/A   Clear
4:55 PM 26.6 °F 15.7 °F 8.6 °F 47% 30.33 in 10.0 mi South 12.7 mph 23.0 mph N/A   Clear
5:15 PM 26.6 °F 19.1 °F 8.6 °F 47% 30.33 in 10.0 mi South 6.9 mph - N/A   Clear
5:35 PM 26.6 °F 14.7 °F 8.6 °F 47% 30.32 in 10.0 mi SSE 15.0 mph 23.0 mph N/A   Clear
5:55 PM 24.8 °F 13.4 °F 8.6 °F 50% 30.32 in 10.0 mi SSE 12.7 mph 17.3 mph N/A   Clear
6:15 PM 26.6 °F 14.3 °F 8.6 °F 47% 30.32 in 10.0 mi South 16.1 mph 21.9 mph N/A   Clear
6:35 PM 26.6 °F 15.7 °F 8.6 °F 47% 30.33 in 10.0 mi South 12.7 mph - N/A   Clear
6:55 PM 21.2 °F 12.6 °F 6.8 °F 54% 30.34 in 10.0 mi ESE 6.9 mph - N/A   Clear
7:15 PM 21.2 °F 11.7 °F 6.8 °F 54% 30.34 in 10.0 mi South 8.1 mph - N/A   Clear
7:35 PM 21.2 °F 11.7 °F 6.8 °F 54% 30.34 in 10.0 mi ESE 8.1 mph - N/A   Clear
7:55 PM 23.0 °F 13.1 °F 8.6 °F 54% 30.34 in 10.0 mi South 9.2 mph - N/A   Clear
8:15 PM 23.0 °F 11.7 °F 8.6 °F 54% 30.34 in 10.0 mi SE 11.5 mph 21.9 mph N/A   Clear
8:35 PM 21.2 °F 14.9 °F 8.6 °F 58% 30.34 in 10.0 mi ENE 4.6 mph - N/A   Clear
8:55 PM 17.6 °F 12.3 °F 3.2 °F 53% 30.33 in 10.0 mi NE 3.5 mph - N/A   Clear
9:15 PM 21.2 °F 10.9 °F 8.6 °F 58% 30.33 in 10.0 mi SSE 9.2 mph - N/A   Clear
9:35 PM 24.8 °F 10.7 °F 8.6 °F 50% 30.33 in 10.0 mi South 19.6 mph 23.0 mph N/A   Clear
9:55 PM 24.8 °F 12.9 °F 8.6 °F 50% 30.33 in 10.0 mi SSE 13.8 mph 21.9 mph N/A   Clear
10:15 PM 24.8 °F 14.6 °F 6.8 °F 46% 30.34 in 10.0 mi South 10.4 mph 18.4 mph N/A   Clear
10:35 PM 21.2 °F 16.4 °F 5.0 °F 50% 30.34 in 10.0 mi ESE 3.5 mph - N/A   Clear
10:55 PM 24.8 °F 14.0 °F 8.6 °F 50% 30.34 in 10.0 mi South 11.5 mph - N/A   Clear
11:15 PM 23.0 °F 13.1 °F 5.0 °F 46% 30.34 in 10.0 mi SSE 9.2 mph - N/A   Clear
11:35 PM 24.8 °F 12.9 °F 6.8 °F 46% 30.33 in 10.0 mi SSE 13.8 mph - N/A   Clear
11:55 PM 19.4 °F 9.5 °F 3.2 °F 49% 30.33 in 10.0 mi SSE 8.1 mph - N/A   Clear